This demonstration page uses our WeatherBlox Daily Observations layout. Learn more.

Hourly Observations for December 28, 2019

Temp ( °F °C ) Dew Point ( °F °C ) Humidity (%) Winds ( mph kmh ) Pressure ( in mb ) Visibility ( mi km ) Precip ( " mm )
12:05 am 00:05 Cloudy with Heavy Rain 36 2.2 33 0.6 89 89 NE 3 6 30.03 1017 2.5 4.02335 0.05 1.27
12:54 am 00:54 Cloudy with Heavy Rain 35 1.7 33 0.6 93 93 E 6 9 29.98 1015 2.5 4.02335 0.26 6.604
1:09 am 01:09 Cloudy with Rain 35 1.7 33 0.6 93 93 E 7 11 29.99 1016 3 4.82802 0.06 1.524
1:29 am 01:29 Cloudy with Rain 36 2.2 34 1.1 93 93 W 3 6 30.02 1017 3 4.82802 0.07 1.778
1:38 am 01:38 Cloudy with Rain 36 2.2 33 0.6 89 89 Calm 30 1016 2.5 4.02335 0.1 2.54
1:54 am 01:54 Cloudy with Rain 35 1.7 33 0.6 93 93 ENE 6 9 29.96 1014 2.5 4.02335 0.15 3.81
2:09 am 02:09 Cloudy with Rain 36 2.2 33 0.6 89 89 E 8 13 29.97 1015 2.5 4.02335 0.03 0.762
2:33 am 02:33 Cloudy with Heavy Rain 36 2.2 34 1.1 93 93 E 7 11 29.96 1015 2.5 4.02335 0.12 3.048
2:37 am 02:37 Cloudy with Rain 36 2.2 34 1.1 93 93 E 8 13 29.96 1015 3 4.82802 0.14 3.556
2:49 am 02:49 Cloudy with Rain 36 2 34 1 93 93 E 9 15 29.95 1014 3 4.82802 0.17 4.318
2:54 am 02:54 Cloudy with Rain 36 2.2 34 1.1 93 93 E 10 17 29.92 1013 3 4.82802 0.19 4.826
3:35 am 03:35 Cloudy with Rain 36 2.2 34 1.1 93 93 NW 3 6 29.98 1015 2 3.21868 0.05 1.27
3:45 am 03:45 Cloudy with Heavy Rain 36 2.2 34 1.1 93 93 NW 3 6 29.98 1015 1.5 2.41401 0.11 2.794
3:54 am 03:54 Cloudy with Rain 36 2.2 34 1.1 93 93 NW 5 7 29.94 1014 2 3.21868 0.14 3.556
4:54 am 04:54 Cloudy with Light Rain 36 2.2 34 1.1 93 93 NNE 6 9 29.92 1013 2.5 4.02335 0.11 2.794
5:12 am 05:12 Cloudy with Light Rain 36 2.2 34 1.1 93 93 E 9 15 29.93 1013 3 4.82802 0.01 0.254
5:33 am 05:33 Cloudy with Light Rain 36 2.2 34 1.1 93 93 ESE 13 20 29.89 1012 5 8.0467 0.02 0.508
5:54 am 05:54 Cloudy with Rain 37 2.8 35 1.7 93 93 E 14 22 29.85 1011 3 4.82802 0.08 2.032
6:42 am 06:42 Cloudy with Light Rain 37 2.8 36 2.2 96 96 ESE 8 13 29.86 1011 4 6.43736 0.02 0.508
6:54 am 06:54 Cloudy with Light Rain 38 3.3 36 2.2 93 93 ESE 8 13 29.83 1010 4 6.43736 0.03 0.762
7:34 am 07:34 Cloudy with Heavy Rain 38 3.3 37 2.8 97 97 Calm 29.86 1011 2.5 4.02335 0.11 2.794
7:43 am 07:43 Cloudy with Rain 38 3.3 36 2.2 93 93 Calm 29.86 1011 2.5 4.02335 0.14 3.556
7:54 am 07:54 Cloudy with Rain 38 3.3 36 2.2 93 93 Calm 29.84 1010 2 3.21868 0.17 4.318
8:17 am 08:17 Cloudy with Light Rain 39 3.9 37 2.8 93 93 ESE 6 9 29.85 1011 3 4.82802 0.07 1.778
8:26 am 08:26 Cloudy with Rain 39 3.9 37 2.8 93 93 E 5 7 29.85 1011 3 4.82802 0.08 2.032
8:49 am 08:49 Cloudy with Rain 39 4 37 3 93 93 E 3 6 29.84 1010 2 3.21868 0.11 2.794
8:54 am 08:54 Cloudy with Rain 39 3.9 37 2.8 93 93 E 3 6 29.82 1010 2 3.21868 0.12 3.048
9:13 am 09:13 Cloudy with Light Rain 40 4.4 38 3.3 93 93 Calm 29.84 1010 1.75 2.816345 0.03 0.762
9:21 am 09:21 Cloudy with Light Rain 40 4.4 38 3.3 93 93 NE 3 6 29.84 1010 1.5 2.41401 0.04 1.016
9:33 am 09:33 Cloudy with Light Rain 40 4.4 38 3.3 93 93 E 3 6 29.84 1010 2 3.21868 0.06 1.524
9:54 am 09:54 Cloudy with Light Rain 40 4.4 38 3.3 93 93 E 5 7 29.81 1010 1.75 2.816345 0.07 1.778
10:13 am 10:13 Cloudy with Heavy Rain 40 4.4 38 3.3 93 93 SSE 7 11 29.86 1011 1.25 2.011675 0.03 0.762
10:28 am 10:28 Cloudy with Rain 40 4.4 38 3.3 93 93 ESE 3 6 29.84 1010 1.5 2.41401 0.09 2.286
10:40 am 10:40 Cloudy with Light Rain 40 4.4 39 3.9 97 97 Calm 29.84 1010 2 3.21868 0.11 2.794
10:54 am 10:54 Cloudy with Rain 40 4.4 39 3.9 97 97 Calm 29.81 1010 2 3.21868 0.13 3.302
11:25 am 11:25 Mostly Cloudy with Light Rain 41 5 39 3.9 93 93 SE 5 7 29.79 1009 4 6.43736 0.03 0.762
11:54 am 11:54 Cloudy with Mist and Fog 42 5.6 40 4.4 92 92 ESE 8 13 29.73 1007 6 9.65604 0.04 1.016
12:18 pm 12:18 Cloudy 42 5.6 40 4.4 92 92 ESE 9 15 29.73 1007 9 14.48406 0 0
12:54 pm 12:54 Cloudy 43 6.1 40 4.4 89 89 ESE 8 13 29.67 1005 10 16.0934 0 0
1:36 pm 13:36 Cloudy 43 6.1 41 5 93 93 E 5 7 29.67 1005 10 16.0934 0 0
1:54 pm 13:54 Cloudy 44 6.7 41 5 89 89 WNW 9 15 29.67 1005 10 16.0934 0 0
2:54 pm 14:54 Cloudy 43 6.1 40 4.4 89 89 N 10 17 29.64 1004 10 16.0934 0.001 0.001
3:50 pm 15:50 Cloudy with Light Rain 43 6 39 4 87 87 N 9 15 29.66 1004 2.5 4.02335 0.001 0.001
3:54 pm 15:54 Cloudy with Light Rain 42 5.6 40 4.4 92 92 N 9 15 29.64 1004 2.5 4.02335 0.001 0.001
4:04 pm 16:04 Cloudy with Light Rain 42 5.6 40 4.4 92 92 N 13 20 29.65 1004 1.75 2.816345 0.01 0.254
4:16 pm 16:16 Cloudy with Light Rain 42 5.6 40 4.4 92 92 N 13 20 29.64 1004 2.5 4.02335 0.02 0.508
4:54 pm 16:54 Cloudy with Light Rain 42 5.6 40 4.4 92 92 N 14 22 29.62 1003 4 6.43736 0.03 0.762
5:54 pm 17:54 Cloudy with Light Rain 40 4.4 38 3.3 93 93 N 13 20 29.63 1003 4 6.43736 0.001 0.001
6:54 pm 18:54 Cloudy with Light Rain 39 3.9 37 2.8 93 93 NNE 14 22 29.57 1001 6 9.65604 0.03 0.762
7:02 pm 19:02 Cloudy with Light Rain 39 3.9 37 2.8 93 93 NNE 14 22 29.58 1002 8 12.87472 0.001 0.001
7:26 pm 19:26 Cloudy 40 4.4 38 3.3 93 93 NNE 9 15 29.6 1002 10 16.0934 0.001 0.001
7:54 pm 19:54 Cloudy 40 4.4 38 3.3 93 93 NNE 14 22 29.54 1001 10 16.0934 0.001 0.001
8:37 pm 20:37 Cloudy with Light Rain 40 4.4 38 3.3 93 93 NNE 8 13 29.58 1002 2 3.21868 0.01 0.254
8:54 pm 20:54 Cloudy with Light Rain 39 3.9 38 3.3 96 96 NNW 7 11 29.56 1001 2 3.21868 0.01 0.254
9:05 pm 21:05 Cloudy with Heavy Rain 39 3.9 38 3.3 96 96 NNW 7 11 29.58 1002 1.75 2.816345 0.04 1.016
9:12 pm 21:12 Cloudy with Rain 39 3.9 38 3.3 96 96 NW 9 15 29.58 1002 3 4.82802 0.06 1.524
9:19 pm 21:19 Cloudy with Light Rain 39 3.9 37 2.8 93 93 WNW 8 13 29.59 1002 4 6.43736 0.07 1.778
9:27 pm 21:27 Cloudy with Heavy Rain 39 3.9 38 3.3 96 96 NNW 9 15 29.58 1002 2.5 4.02335 0.09 2.286
9:37 pm 21:37 Cloudy with Rain 39 3.9 38 3.3 96 96 N 6 9 29.58 1002 3 4.82802 0.15 3.81
9:54 pm 21:54 Cloudy with Rain 39 3.9 37 2.8 93 93 NNE 12 19 29.52 1000 7 11.26538 0.19 4.826
10:07 pm 22:07 Cloudy with Rain 39 3.9 37 2.8 93 93 NNE 12 19 29.52 1000 6 9.65604 0.01 0.254
10:38 pm 22:38 Cloudy with Light Rain 39 3.9 37 2.8 93 93 NNE 8 13 29.52 1000 10 16.0934 0.04 1.016
10:52 pm 22:52 Cloudy with Heavy Rain 39 4 37 3 93 93 NW 8 13 29.53 1000 4 6.43736 0.06 1.524
10:54 pm 22:54 Cloudy with Heavy Rain 39 3.9 37 2.8 93 93 NW 7 11 29.51 999 3 4.82802 0.07 1.778
10:56 pm 22:56 Cloudy with Heavy Rain 39 3.9 37 2.8 93 93 NW 7 11 29.53 1000 2.5 4.02335 0.001 0.001
11:23 pm 23:23 Cloudy with Heavy Rain 38 3.3 36 2.2 93 93 W 10 17 29.56 1001 1.5 2.41401 0.19 4.826
11:29 pm 23:29 Cloudy with Heavy Rain 38 3.3 36 2.2 93 93 W 8 13 29.56 1001 2.5 4.02335 0.25 6.35
11:31 pm 23:31 Cloudy with Rain 38 3.3 36 2.2 93 93 WNW 9 15 29.55 1001 3 4.82802 0.26 6.604
11:44 pm 23:44 Cloudy with Light Rain 38 3.3 36 2.2 93 93 N 17 28 29.47 998 5 8.0467 0.3 7.62
11:54 pm 23:54 Cloudy with Light Rain 38 3.3 36 2.2 93 93 W 9 15 29.5 999 8 12.87472 0.31 7.874

Powered by AerisWeather